User: anonymous   Login
Location: Unspecified
(0.0000°N, 0.0000°E)
Time: 02:57:08
(UTC+00:00)
Language:

ONEWEB-0208 - Orbit

View from above orbital plane
View from above orbital plane
View from above satellite
View from above satellite

Ground track
Ground track

The orbit is defined by the following mean orbital elements,

1 48243U          26145.40074705 +.00000000 +00000-0 +67562-3 0 00008
2 48243  87.8944 294.2495 0001478 103.6880 256.4414 13.14501837    03
Epoch (UTC): 25 May 2026 09:37:04
Eccentricity: 0.0001478
inclination: 87.8944°
perigee height: 1205 km
apogee height: 1207 km
right ascension of ascending node: 294.2495°
argument of perigee: 103.6880°
revolutions per day: 13.14501837
mean anomaly at epoch: 256.4414°

The dashed part of the orbit path shows where the satellite is in the earth's shadow,  

DLR